Location: 5810 Zion Rd, Cleves, OH 45002, USA
(39.1922°N, 84.7113°W)
Time: 23:31:38
(UTC-05:00)

Vanguard 3 - Pass Details

Date: 22 December 2019
Orbit: 507 x 3263 km, 33.4° (Epoch: 22 January)

Event Time Altitude Azimuth Distance (km) Brightness Sun altitude
Rises 10:10:02 0° 269° (W) 3,665 10.2 18.5°
Reaches altitude 10° 10:12:29 10° 259° (W) 2,997 9.9 18.8°
Maximum altitude 10:19:08 33° 198° (SSW) 2,427 10.3 19.5°
Drops below altitude 10° 10:29:49 10° 142° (SE) 4,879 13.3 20.6°
Sets 10:35:08 0° 135° (SE) 6,338 13.1 21.2°
